Change the Weather History Date:

Friday, October 26, 2012

  Actual Average Record
Temperature  
Mean Temperature 40 °F 55 °F  
Max Temperature 48 °F 66 °F 89 °F (1922)
Min Temperature 31 °F 44 °F 21 °F (1942)
Degree Days  
Heating Degree Days 25 10  
Month to date heating degree days 205 184  
Since 1 July heating degree days 227 231  
Cooling Degree Days 0 0  
Month to date cooling degree days 22 31  
Year to date cooling degree days 1981 1528  
Moisture  
Dew Point 28 °F    
Average Humidity 64    
Maximum Humidity 82    
Minimum Humidity 45    
Precipitation  
Precipitation 0.00 in 0.10 in 2.65 in (1918)
Month to date precipitation 2.11 3.18  
Year to date precipitation 30.28 37.34  
Sea Level Pressure  
Sea Level Pressure 30.40 in    
Wind  
Wind Speed 11 mph (North)    
Max Wind Speed 21 mph    
Max Gust Speed 29 mph    
Visibility 10 miles    
Events      
T = Trace of Precipitation, MM = Missing Value Source: NWS Daily Summary

Daily Weather History Graph

Daily Weather History Graph

Search for Another Location

Airport or City:

Trip Planner

Search our weather history database for the weather conditions in past years. The results will help you decide how hot, cold, wet, or windy it might be!

Date:

Astronomy

Oct. 26, 2012 Rise Set
Actual Time 7:41 AM CDT 6:29 PM CDT
Civil Twilight 7:14 AM CDT 6:56 PM CDT
Nautical Twilight 6:43 AM CDT 7:27 PM CDT
Astronomical Twilight 6:13 AM CDT 7:57 PM CDT
Moon 4:43 PM CDT (10/26) 4:41 AM CDT (10/26)
Length of Visible Light 11h 41m
Length of Day
10h 48m
Waxing Gibbous, 91% of the Moon is Illuminated
Oct 26
Waxing Gibbous
Oct 29
Full
Nov 6
Last Quarter
Nov 13
New
Nov 20
First Quarter

Hourly Weather History & Observations

Time (CDT) Temp. Windchill Dew Point Humidity Pressure Visibility Wind Dir Wind Speed Gust Speed Precip Events Conditions
12:52 AM 37.4 °F 28.9 °F 30.2 °F 75% 30.28 in 10.0 mi North 13.8 mph 20.7 mph N/A   Clear
1:52 AM 37.0 °F 29.8 °F 28.9 °F 73% 30.32 in 10.0 mi North 10.4 mph - N/A   Partly Cloudy
2:52 AM 36.0 °F 29.0 °F 30.0 °F 79% 30.32 in 10.0 mi North 9.2 mph - N/A   Partly Cloudy
3:52 AM 36.0 °F 27.1 °F 28.0 °F 73% 30.32 in 10.0 mi North 13.8 mph 21.9 mph N/A   Mostly Cloudy
4:52 AM 37.0 °F 30.4 °F 28.0 °F 70% 30.34 in 10.0 mi North 9.2 mph - N/A   Overcast
5:52 AM 37.0 °F 27.7 °F 28.0 °F 70% 30.35 in 10.0 mi NNE 16.1 mph 21.9 mph N/A   Overcast
6:52 AM 37.0 °F 27.0 °F 28.0 °F 70% 30.39 in 10.0 mi North 18.4 mph 23.0 mph N/A   Overcast
7:52 AM 37.0 °F 28.9 °F 27.0 °F 67% 30.39 in 10.0 mi North 12.7 mph 23.0 mph N/A   Overcast
8:52 AM 37.0 °F 28.5 °F 27.0 °F 67% 30.44 in 10.0 mi North 13.8 mph 23.0 mph N/A   Overcast
9:52 AM 37.9 °F 30.0 °F 27.0 °F 65% 30.45 in 10.0 mi NNE 12.7 mph 23.0 mph N/A   Overcast
10:52 AM 39.0 °F 30.6 °F 27.0 °F 62% 30.46 in 10.0 mi NNE 15.0 mph 19.6 mph N/A   Overcast
11:52 AM 39.9 °F 31.4 °F 27.0 °F 60% 30.46 in 10.0 mi North 16.1 mph 25.3 mph N/A   Mostly Cloudy
12:01 PM 41.0 °F 33.5 °F 26.6 °F 57% 30.45 in 10.0 mi North 13.8 mph - N/A   Partly Cloudy
12:52 PM 43.0 °F 36.4 °F 28.0 °F 56% 30.47 in 10.0 mi North 12.7 mph 23.0 mph N/A   Partly Cloudy
1:52 PM 46.0 °F 39.9 °F 28.0 °F 50% 30.43 in 10.0 mi North 13.8 mph 26.5 mph N/A   Clear
2:52 PM 46.9 °F - 28.0 °F 48% 30.40 in 10.0 mi North 17.3 mph 25.3 mph N/A   Clear
3:52 PM 46.9 °F - 28.0 °F 48% 30.38 in 10.0 mi NNE 13.8 mph - N/A   Clear
4:52 PM 46.4 °F 39.8 °F 26.6 °F 46% 30.38 in 10.0 mi North 16.1 mph - N/A   Partly Cloudy
5:52 PM 45.0 °F 39.7 °F 26.1 °F 48% 30.39 in 10.0 mi North 10.4 mph - N/A   Clear
6:52 PM 41.0 °F 36.4 °F 26.1 °F 55% 30.40 in 10.0 mi North 6.9 mph - N/A   Clear
7:52 PM 39.0 °F 33.4 °F 28.0 °F 65% 30.41 in 10.0 mi North 8.1 mph - N/A   Clear
8:52 PM 37.0 °F 32.4 °F 27.0 °F 67% 30.42 in 10.0 mi North 5.8 mph - N/A   Clear
9:52 PM 35.1 °F 31.0 °F 27.0 °F 72% 30.43 in 10.0 mi North 4.6 mph - N/A   Clear
10:52 PM 33.1 °F 28.7 °F 26.1 °F 75% 30.42 in 10.0 mi North 4.6 mph - N/A   Clear
11:52 PM 33.1 °F 27.7 °F 27.0 °F 78% 30.41 in 10.0 mi North 5.8 mph - N/A   Clear